Погода в Кузькином

Россия / Самарская область     53°31′56″N   48°42′53″E
темп.,
°C
ветер,
м/с
пор.,
м/с
влажн.,
%
обл.,
%
осадки,
мм/ч
давл.,
гПа
погр.,
м
15 апреля, чт
чт1501:00+11юв22830 0.0 102210
04:00+9в11830 0.0 102210
07:00+9вюв11840 0.0 102110
10:00+14ююв34604 0.0 1020343
13:00+18ююв344626 0.0 1019669
16:00+20ююв34360 0.0 10181252
19:00+17вюв224872 0.0 101811
22:00+14ююв115692 0.0 101811
16 апреля, пт
пт1601:00+12св1160100 0.0 101810
04:00+11св2263100 0.0 101810
07:00+10св2267100 0.0 101831
10:00+14св455392 0.0 1019260
13:00+18св454150 0.0 1019751
16:00+19св453314 0.0 10191805
19:00+16ссв485311 0.0 1019214
22:00+12ссв51069100 0.0 1020202
17 апреля, сб
сб1701:00+9ссв5108739 0.0 1020185
04:00+7ссв6119614 0.0 1021217
07:00+6св6129646 0.0 1022258
10:00+10св710731 0.0 1022436
13:00+14св78571 0.0 1021812
16:00+15св78475 0.0 10211107
19:00+12ссв610480 0.0 1021466
22:00+9св613540 0.0 1022367
18 апреля, вс
вс1801:00+6св613610 0.0 1022338
04:00+4св513670 0.0 1022304
07:00+4ссв612680 0.0 1023365
10:00+8св710550 0.0 1022774
13:00+11ссв79410 0.0 10221345
16:00+12ссв810405 0.0 10221652
19:00+10ссв611526 0.0 1024808
22:00+6св712685 0.0 1027858
19 апреля, пн
пн1901:00+4св611520 0.0 1029714
04:00+1св611575 0.0 1031557
07:00+1св611605 0.0 1033623
10:00+4всв810401 0.0 10341237
13:00+6всв78315 0.0 10351601
16:00+7всв67285 0.0 10351718
19:00+6всв46334 0.0 1035825
22:00+3в38440 0.0 1036213